sat.trackr.live / text

‹ back to catalog

HBTSS-SV1

NORAD 58960 · 2024-028F

PAYLOAD ACTIVE UNKNOWN

§ Identity

Operator
Country
US
Launch date
2024-02-14
Launch site
AFETR
Launch vehicle
Mass (kg)
RCS (m²)

External: N2YO · Heavens-Above · Gunter

§ Orbital elements

Epoch: 2026-09-22T08:11:48.719040Z

Period
95.76 min
Inclination
39.9895°
Eccentricity
0.0009786
Mean motion
15.03784947 rev/d
Perigee alt
548.5 km
Apogee alt
562.0 km
Semi-major
6,933.4 km
B*
2.4633e-4
RAAN
289.6919°
Arg perigee
172.8081°
Mean anomaly
187.2855°
Rev number
12,177

§ Raw data

HBTSS-SV11 58960U 24028F   26265.34153610  .00003297  00000+0  24633-3 0  99992 58960  39.9895 289.6919 0009786 172.8081 187.2855 15.03784947121776

JSON: /api/v1/satellites/58960 · /tle

For live sub-satellite position, see the globe view (requires WebGL).

§ Visibility from observer

Set your observer location to see the next 7 days of passes ≥ 10°. The values pass through the URL so the page stays shareable.

No JS? Fill the form by hand. The geolocation button needs JavaScript.